Volver al catálogo

IGS O-8

ActivoMilitarSSO
NORAD 58762·PAYLOAD·🇯🇵 Japan

Lanzado Jan 12, 2024 desde Tanegashima Space Center

Loading…

Próximos Pases (próximas 24 horas)

TLE

ObsoletoSource: Mike McCants

Época: Aug 13, 2026, 00:41 UTC

1 58762U 24010A   26225.02905224 0.00000000  00000-0  00000-0 0    09
2 58762  97.3453 346.1533 0000980 330.0712  29.9286 15.27638576    05

Sigue IGS O-8 en tiempo real con AllMySat

Download on the App Store